Showing default

OPS 3662 (VELA 3), 836

Orbit data source: Space-Track

OPS 3662 (VELA 3), 836 is a payload satellite owned by USAF SSD (US) in HEO that was launched on Fri, 17 Jul 1964 UTC via an ATLAS AGENA D launch vehicle from the Air Force Eastern Test Range (AFETR). Payload-class satellites include a variety of spacecraft equipped with specific instruments for various scientific and technological missions. These include communications satellites like Starlink; space stations such as the ISS; scientific satellites like the Hubble; Earth observation satellites from companies like Planet Labs, Umbra, and HawkEye 360; GPS; miniature CubeSats for education and research; and military/defense satellites.

Loading next visibility...
Identifier
836, 1964-040A
Orbit
HEO
Country
Flag of USUS
Related business
Manufacturer
TRW
Mission
Spacecraft
Bus & Motor
VELA, BE-3
Mass
~227 kg wet, 125 kg dry
Launch date (UTC)
1964-07-17 (62 years ago)
Launch vehicle
ATLAS AGENA D
Launch site
Air Force Eastern Test Range (AFETR)
Object type
Payload
Rocket body
Debris
Shape & HBR
POLY, 1.1 m
Radar Cross Section
Medium (>0.1 m² and <1 m²)

Expand to show TLE details & history
Last TLE update: in 2 days

TLE from in 2 days
0 OPS 3662 (VELA 3)
1 00836U 64040A   26259.46110367  .00000214  00000-0  00000-0 0  9990
2 00836  53.1891 116.3550 5372360 273.2877   0.6138  0.23920346 11222
Epoch: 2026-09-16T11:03Z
TLE epoch observation values (Epoch: 2026-09-16T11:03:59.357Z)
Latitude
-52.90487°
Longitude
-126.95292°
Altitude
44,012.905 km
Speed
3.491 km/s
True Right ascension
02h 17m 49s
True Declination
-52° 52' 53"
Sunlit
Object was in daylight at epoch
Visualization orbit readout
Latitude
Unknown
Longitude
Unknown
Altitude
Unknown
Speed
Unknown
Apparent Right ascension
Unknown
Apparent Declination
Unknown
Sunlit
N/A
Visualization observer readout
Local Sidereal Time
02:46:00
Azimuth
Unknown
Elevation
Unknown
Doppler factor
Unknown
Orbital elements
Apogee altitude
162,133.974 km
Perigee altitude
44,350.143 km
Semi-major axis
109,620.195 km
Eccentricity
0.53724
Inclination
53.1891°
RAAN
116.355°
Arg. of periapsis
273.2877°
True anomaly
2.41695°
Mean anomaly
0.6138°
Eccentric anomaly
1.32624°
Mean motion
0.0598 °/min
Orbital period
6,019.98 mins
BSTAR
0
Loading maneuver chart data...
Computing Atmospheric mass density...
Loading historical data...
Loading historical data...
Loading historical data...
Loading historical data...
Loading historical data...
Loading historical data...
Loading historical data...
Other satellites on launch #40 in the year 1964 (1964-07-17 UTC)

Documentation

Showing up to 5 results
|